This demonstration page uses our WeatherBlox Daily Observations layout. Learn more.

Left ArrowRight Arrow

40.92945, -100.16068

Hourly Observations for May 14, 2020

Temp ( °F °C ) Dew Point ( °F °C ) Humidity (%) Winds ( mph kmh ) Pressure ( in mb ) Visibility ( mi km ) Precip ( " mm )
12:15 am 00:15 Clear 49 9.5 48 9 97 97 SE 3 6 29.82 1010 7 11.26538 0 0
12:35 am 00:35 Clear with Mist and Fog 48 9 47 8.6 97 97 SE 5 7 29.83 1010 2 3.21868 0 0
12:55 am 00:55 Cloudy with Fog 46 7.8 46 7.6 99 99 Calm 29.85 1011 0.25 0.402335 0 0
1:15 am 01:15 Cloudy with Fog 45 7.2 45 7.1 99 99 Calm 29.86 1011 0.5 0.80467 0 0
1:35 am 01:35 Cloudy with Mist and Fog 47 8.5 47 8.2 98 98 N 3 6 29.85 1011 1.5 2.41401 0 0
1:55 am 01:55 Cloudy with Mist and Fog 46 7.8 46 7.6 99 99 N 6 9 29.85 1011 0.75 1.207005 0 0
2:15 am 02:15 Cloudy with Fog 45 7.2 45 7 99 99 Calm 29.86 1011 0.25 0.402335 0 0
2:35 am 02:35 Cloudy with Fog 46 7.9 46 7.7 99 99 ESE 3 6 29.84 1011 0.25 0.402335 0 0
2:55 am 02:55 Cloudy with Fog 48 8.9 48 8.7 99 99 Calm 29.83 1010 N/A 0 0
3:15 am 03:15 Cloudy with Fog 49 9.2 48 9.1 99 99 ENE 3 6 29.83 1010 N/A 0 0
3:35 am 03:35 Cloudy with Fog 48 9 48 8.8 99 99 Calm 29.83 1010 N/A 0 0
3:55 am 03:55 Cloudy with Fog 48 8.7 47 8.6 99 99 Calm 29.83 1010 0.25 0.402335 0 0
4:15 am 04:15 Cloudy with Fog 47 8.5 47 8.4 99 99 Calm 29.84 1010 0.25 0.402335 0 0
4:35 am 04:35 Cloudy with Fog 47 8.2 47 8.1 99 99 Calm 29.83 1010 0.25 0.402335 0 0
4:55 am 04:55 Cloudy with Fog 46 8 46 8 100 100 NW 3 6 29.84 1010 N/A 0 0
5:15 am 05:15 Cloudy with Fog 47 8.3 47 8.2 99 99 Calm 29.85 1011 N/A 0 0
5:35 am 05:35 Cloudy with Fog 47 8.5 47 8.5 100 100 W 3 6 29.86 1011 N/A 0 0
5:55 am 05:55 Cloudy with Fog 47 8.5 47 8.5 100 100 W 3 6 29.86 1011 N/A 0 0
6:15 am 06:15 Cloudy with Fog 47 8.5 47 8.5 100 100 WSW 3 6 29.86 1011 N/A 0 0
6:35 am 06:35 Cloudy with Fog 47 8.5 47 8.3 99 99 WSW 3 6 29.86 1011 N/A 0 0
6:55 am 06:55 Cloudy with Drizzle 47 8.5 47 8.3 99 99 W 7 11 29.87 1011 N/A 0 0
7:15 am 07:15 Cloudy with Fog 47 8.5 47 8.4 99 99 W 3 6 29.87 1011 N/A 0 0
7:35 am 07:35 Cloudy with Fog 48 8.7 47 8.6 99 99 Calm 29.86 1011 N/A 0 0
7:55 am 07:55 Cloudy with Fog 48 8.9 48 8.7 99 99 Calm 29.86 1011 0.5 0.80467 0 0
8:15 am 08:15 Mostly Cloudy with Mist and Fog 50 9.8 50 9.8 100 100 W 5 7 29.85 1011 5 8.0467 0 0
8:35 am 08:35 Partly Cloudy 51 10.4 50 10.2 99 99 WNW 3 6 29.85 1011 10 16.0934 0 0
8:55 am 08:55 Sunny 52 11.2 51 10.5 96 96 Calm 29.84 1011 10 16.0934 0 0
9:15 am 09:15 Sunny 53 11.7 51 10.4 92 92 Calm 29.84 1010 10 16.0934 0 0
9:35 am 09:35 Sunny 54 12.4 52 11 91 91 SSE 3 6 29.83 1010 10 16.0934 0 0
9:55 am 09:55 Sunny 55 12.8 51 10.8 88 88 ESE 7 11 29.83 1010 10 16.0934 0 0
10:15 am 10:15 Sunny 57 13.7 53 11.4 86 86 ESE 6 9 29.82 1010 10 16.0934 0 0
10:35 am 10:35 Sunny 57 13.9 52 11.3 84 84 E 3 6 29.83 1010 10 16.0934 0 0
10:55 am 10:55 Sunny 60 15.8 53 11.8 77 77 Calm 29.81 1009 10 16.0934 0 0
11:15 am 11:15 Sunny 63 17.1 55 12.5 75 75 E 5 7 29.8 1009 10 16.0934 0 0
11:35 am 11:35 Sunny 63 17.3 53 11.9 71 71 E 5 7 29.8 1009 10 16.0934 0 0
11:55 am 11:55 Sunny 65 18.1 53 11.7 66 66 ESE 3 6 29.79 1009 10 16.0934 0 0
12:15 pm 12:15 Sunny 67 19.2 55 12.9 67 67 Calm 29.78 1008 10 16.0934 0 0
12:35 pm 12:35 Sunny 68 19.8 55 12.6 63 63 Calm 29.77 1008 10 16.0934 0 0
12:55 pm 12:55 Sunny 69 20.4 53 11.8 58 58 Calm 29.76 1008 10 16.0934 0 0
1:15 pm 13:15 Sunny 71 21.8 50 10.2 48 48 NNE 5 7 29.75 1007 10 16.0934 0 0
1:35 pm 13:35 Sunny 72 22.3 50 10 46 46 Calm 29.73 1007 10 16.0934 0 0
1:55 pm 13:55 Sunny 73 22.8 49 9.7 43 43 W 5 7 29.72 1006 10 16.0934 0 0
2:15 pm 14:15 Sunny 74 23.4 49 9.4 41 41 WNW 8 13 29.71 1006 10 16.0934 0 0
2:35 pm 14:35 Sunny 75 24 51 10.3 42 42 NNW 7 11 29.71 1006 10 16.0934 0 0
2:55 pm 14:55 Sunny 75 23.9 50 9.8 41 41 NNE 9 15 29.7 1006 10 16.0934 0 0
3:15 pm 15:15 Sunny 75 23.9 49 9.7 41 41 N 3 6 29.7 1006 10 16.0934 0 0
3:30 pm 15:30 Sunny 76 24.5 50 9.9 40 40 N 5 7 29.69 1006 10 16.0934 0 0
3:55 pm 15:55 Sunny 77 24.8 50 9.8 39 39 N 8 13 29.68 1005 10 16.0934 0 0
4:15 pm 16:15 Sunny 77 25.2 51 10.4 39 39 Calm 29.68 1005 10 16.0934 0 0
4:35 pm 16:35 Partly Cloudy 77 24.8 51 10.8 41 41 ENE 3 6 29.67 1005 7 11.26538 0 0
4:55 pm 16:55 Partly Cloudy 77 25 50 10 39 39 Calm 29.67 1005 10 16.0934 0 0
5:15 pm 17:15 Mostly Cloudy 77 25 51 10.5 40 40 Calm 29.67 1005 7 11.26538 0 0
5:35 pm 17:35 Partly Cloudy 76 24.4 51 10.7 42 42 ENE 7 11 29.68 1005 10 16.0934 0 0
5:55 pm 17:55 Partly Cloudy 76 24.5 51 10.8 42 42 E 7 11 29.67 1005 10 16.0934 0 0
6:15 pm 18:15 Sunny 76 24.7 52 11.1 43 43 NE 8 13 29.68 1005 10 16.0934 0 0
6:35 pm 18:35 Partly Cloudy 74 23.2 51 10.7 45 45 NNE 7 11 29.71 1006 10 16.0934 0 0
6:55 pm 18:55 Partly Cloudy 76 24.2 52 10.9 43 43 NE 7 11 29.7 1006 10 16.0934 0 0
7:15 pm 19:15 Sunny 72 22.3 52 10.9 49 49 ENE 8 13 29.71 1006 10 16.0934 0 0
7:35 pm 19:35 Sunny 73 22.6 52 11.3 49 49 ENE 7 11 29.72 1006 10 16.0934 0 0
7:55 pm 19:55 Sunny 70 21.3 53 11.6 54 54 ENE 6 9 29.73 1007 10 16.0934 0 0
8:15 pm 20:15 Sunny 69 20.5 53 11.6 57 57 ENE 7 11 29.75 1007 10 16.0934 0 0
8:35 pm 20:35 Partly Cloudy 67 19.6 52 11.1 58 58 NE 6 9 29.77 1008 10 16.0934 0 0
8:55 pm 20:55 Clear 68 19.8 52 11 57 57 N 13 20 29.76 1008 10 16.0934 0 0
9:15 pm 21:15 Clear 64 18 52 11 64 64 N 9 15 29.8 1009 10 16.0934 0 0
9:35 pm 21:35 Clear 65 18.2 51 10.6 61 61 NNE 10 17 29.82 1010 10 16.0934 0 0
9:55 pm 21:55 Clear 63 17.1 51 10.4 65 65 NE 13 20 29.83 1010 10 16.0934 0 0
10:15 pm 22:15 Clear 62 16.4 50 10 66 66 NE 12 19 29.84 1011 10 16.0934 0 0
10:35 pm 22:35 Clear 61 15.9 49 9.5 66 66 NE 10 17 29.85 1011 10 16.0934 0 0
10:55 pm 22:55 Clear 60 15.4 49 9.3 67 67 NE 10 17 29.85 1011 10 16.0934 0 0
11:15 pm 23:15 Clear 58 14.6 49 9.2 70 70 NE 9 15 29.86 1011 10 16.0934 0 0
11:35 pm 23:35 Clear 57 14 48 9 72 72 NE 8 13 29.87 1012 10 16.0934 0 0
11:55 pm 23:55 Clear 57 13.8 48 8.9 73 73 NE 9 15 29.88 1012 10 16.0934 0 0

Powered by AerisWeather